EW0362 Weather Reports


Display with metric or nautical units.
time (UTC)temp
F
wind
direction
speed
MPH
gust
MPH
rain 1hr
in
rain 24hr
in
rain mn
in
humidity
%
barometer
mb
20200228060202 29 212 2.0 6.0 0.00 0.81 0.00 54 1003.3
20200228055702 29 216 2.0 3.0 0.00 0.81 0.00 52 1003.2
20200228054703 29 241 3.0 7.0 0.00 0.81 0.00 52 1003.2
20200228054203 29 263 2.0 5.0 0.00 0.81 0.00 52 1003.2
20200228053703 29 277 1.0 5.0 0.00 0.81 0.00 52 1003.1
20200228052702 29 221 2.0 9.0 0.00 0.81 0.00 49 1002.9
20200228052203 29 242 5.0 13.0 0.00 0.81 0.00 48 1002.9
20200228051203 29 235 3.0 7.0 0.00 0.81 0.00 50 1002.8
20200228050202 29 170 2.0 5.0 0.00 0.81 0.00 50 1002.6
20200228045702 29 223 3.0 8.0 0.00 0.81 0.81 50 1002.5
20200228045203 29 268 4.0 8.0 0.00 0.81 0.81 52 1002.6
20200228044702 29 272 2.0 5.0 0.00 0.82 0.81 51 1002.5
20200228044203 29 218 2.0 6.0 0.00 0.82 0.81 51 1002.4
20200228043703 30 235 4.0 7.0 0.00 0.82 0.81 50 1002.4
20200228043203 30 211 2.0 6.0 0.00 0.82 0.81 52 1002.3
20200228042702 30 260 3.0 8.0 0.00 0.82 0.81 51 1002.4
20200228042202 30 205 3.0 8.0 0.00 0.82 0.81 52 1002.4
20200228041702 30 208 5.0 9.0 0.00 0.82 0.81 50 1002.3
20200228041202 30 231 3.0 15.0 0.00 0.82 0.81 52 1002.3
20200228035703 30 257 4.0 8.0 0.00 0.82 0.81 55 1002.3
20200228034703 30 249 3.0 7.0 0.00 0.82 0.81 56 1002.2
20200228033702 30 265 3.0 7.0 0.00 0.83 0.81 56 1002.0
20200228033202 31 231 3.0 8.0 0.00 0.83 0.81 56 1002.0
20200228032702 31 101 1.0 6.0 0.00 0.83 0.81 58 1001.9
20200228030703 31 228 3.0 5.0 0.00 0.83 0.81 57 1001.7
20200228030202 31 291 3.0 10.0 0.00 0.83 0.81 55 1001.7
20200228025203 31 249 1.0 3.0 0.00 0.83 0.81 56 1001.5
20200228024702 31 274 3.0 7.0 0.00 0.83 0.81 55 1001.5
20200228024202 31 238 2.0 6.0 0.00 0.83 0.81 56 1001.4
20200228023203 31 266 2.0 3.0 0.00 0.83 0.81 55 1001.4
20200228022703 31 275 1.0 3.0 0.00 0.83 0.81 57 1001.5
20200228022202 31 288 2.0 8.0 0.00 0.83 0.81 53 1001.5
20200228021703 31 270 1.0 15.0 0.00 0.83 0.81 54 1001.4
20200228021203 31 261 3.0 7.0 0.00 0.83 0.81 53 1001.5
20200228020703 31 254 5.0 12.0 0.00 0.83 0.81 56 1001.3
20200228020203 31 235 2.0 6.0 0.00 0.83 0.81 56 1001.3
20200228015703 31 238 3.0 7.0 0.00 0.83 0.81 58 1001.2
20200228013702 32 300 2.0 9.0 0.00 0.83 0.81 57 1000.9
20200228013203 32 244 6.0 13.0 0.00 0.83 0.81 55 1000.8
20200228012202 32 224 3.0 10.0 0.00 0.83 0.81 58 1000.7
20200228011702 32 267 2.0 5.0 0.00 0.83 0.81 62 1000.5
20200228010703 32 222 5.0 9.0 0.00 0.83 0.81 61 1000.2
20200228004702 32 219 6.0 9.0 0.00 0.83 0.81 62 999.9
20200228003703 32 232 2.0 9.0 0.00 0.83 0.81 60 999.7
20200228002703 32 189 3.0 13.0 0.00 0.83 0.81 58 999.4
20200228002202 32 272 4.0 12.0 0.00 0.83 0.81 58 999.4
20200228001203 32 261 3.0 6.0 0.00 0.83 0.81 58 999.0
20200228000703 32 240 5.0 9.0 0.00 0.83 0.81 56 998.9
20200227235702 33 220 3.0 9.0 0.00 0.83 0.81 59 998.9
20200227235203 33 223 3.0 8.0 0.00 0.83 0.81 58 998.8
20200227234702 33 311 2.0 10.0 0.00 0.83 0.81 59 998.7
20200227233703 33 227 3.0 12.0 0.00 0.83 0.81 58 998.3
20200227233203 33 228 3.0 8.0 0.00 0.83 0.81 59 998.1
20200227232203 34 268 3.0 8.0 0.00 0.83 0.81 57 997.9
20200227231702 34 232 4.0 12.0 0.00 0.83 0.81 57 997.8
20200227230203 34 277 3.0 14.0 0.00 0.83 0.81 55 997.5
20200227225702 34 283 6.0 14.0 0.00 0.83 0.81 55 997.3
20200227224703 34 237 2.0 8.0 0.00 0.83 0.81 58 996.8
20200227224203 34 258 3.0 10.0 0.00 0.83 0.81 57 996.7
20200227223203 35 250 5.0 8.0 0.00 0.83 0.81 56 996.4
20200227222702 35 232 5.0 13.0 0.00 0.83 0.81 58 996.3
20200227222203 35 218 5.0 9.0 0.00 0.83 0.81 54 995.9
20200227221702 35 207 5.0 16.0 0.00 0.83 0.81 55 996.1
20200227221202 35 272 6.0 16.0 0.00 0.83 0.81 54 995.9
20200227220703 35 248 3.0 9.0 0.00 0.83 0.81 56 995.8
20200227220202 35 218 5.0 9.0 0.00 0.83 0.81 57 995.4
20200227215703 36 283 2.0 7.0 0.00 0.83 0.81 59 995.3
20200227215203 36 258 4.0 7.0 0.00 0.83 0.81 56 995.3
20200227214703 36 286 4.0 8.0 0.00 0.83 0.81 56 995.3
20200227213703 36 241 3.0 6.0 0.00 0.83 0.81 55 995.3
20200227212703 36 249 6.0 15.0 0.00 0.83 0.81 55 995.2
20200227212203 36 235 5.0 12.0 0.00 0.83 0.81 57 995.1
20200227211703 36 237 5.0 15.0 0.00 0.83 0.81 57 995.1
20200227210703 37 295 3.0 8.0 0.00 0.83 0.81 56 994.7
20200227210203 37 225 5.0 12.0 0.00 0.83 0.81 54 994.7
20200227205203 37 266 3.0 10.0 0.00 0.83 0.81 55 994.4
20200227204703 37 316 3.0 20.0 0.00 0.83 0.81 54 994.3
20200227203704 37 292 3.0 7.0 0.00 0.83 0.81 55 994.0
20200227203203 37 204 4.0 9.0 0.00 0.83 0.81 57 994.1
20200227202203 38 101 3.0 15.0 0.00 0.83 0.81 58 993.8
20200227201702 38 247 3.0 12.0 0.00 0.83 0.81 56 993.6
20200227201203 39 224 5.0 12.0 0.00 0.83 0.81 54 993.3
20200227200203 39 271 3.0 8.0 0.00 0.83 0.81 55 992.9
20200227195703 40 283 3.0 12.0 0.00 0.83 0.81 55 992.9
20200227195203 40 303 5.0 13.0 0.00 0.83 0.81 55 992.6
20200227192703 40 260 3.0 16.0 0.00 0.83 0.81 57 991.8
20200227192203 41 236 5.0 8.0 0.00 0.83 0.81 57 991.7
20200227191703 41 309 4.0 12.0 0.00 0.83 0.81 57 991.7
20200227191203 41 273 5.0 14.0 0.00 0.83 0.81 58 991.6
20200227190203 42 224 5.0 12.0 0.00 0.83 0.81 60 991.4
20200227185703 42 246 3.0 8.0 0.00 0.83 0.81 61 991.2
20200227185203 41 224 5.0 9.0 0.00 0.83 0.81 62 991.1
20200227184703 42 270 5.0 13.0 0.00 0.83 0.81 59 991.4
20200227184203 42 231 5.0 15.0 0.00 0.83 0.81 61 991.2
20200227183203 43 274 5.0 10.0 0.00 0.83 0.81 60 991.0
20200227182703 43 28 3.0 12.0 0.00 0.83 0.81 60 990.8
20200227182203 43 219 4.0 12.0 0.00 0.83 0.81 67 990.9
20200227181203 43 312 6.0 12.0 0.00 0.83 0.81 67 990.6
20200227180703 43 238 5.0 10.0 0.00 0.83 0.81 71 990.5
20200227180203 43 258 5.0 12.0 0.00 0.83 0.81 70 990.4
20200227175703 43 293 4.0 9.0 0.00 0.83 0.81 72 990.2
20200227175203 44 282 4.0 8.0 0.00 0.83 0.81 70 990.2
20200227174702 44 256 6.0 14.0 0.00 0.83 0.81 71 990.0
20200227174203 44 232 4.0 13.0 0.00 0.83 0.81 74 989.8
20200227173702 43 245 3.0 16.0 0.00 0.83 0.81 74 989.8
20200227172203 43 185 2.0 5.0 0.00 0.83 0.81 75 989.6
20200227171204 43 226 5.0 13.0 0.00 0.83 0.81 75 989.6
20200227170703 43 289 5.0 20.0 0.00 0.83 0.81 75 989.5
20200227170203 43 238 5.0 9.0 0.00 0.83 0.81 79 989.3
20200227165703 43 232 6.0 13.0 0.00 0.83 0.81 79 989.1
20200227165203 43 240 5.0 10.0 0.00 0.83 0.81 81 989.0
20200227164703 43 256 6.0 12.0 0.00 0.83 0.81 83 988.9
20200227164203 42 158 2.0 5.0 0.00 0.83 0.81 86 988.8
20200227163703 43 198 3.0 12.0 0.00 0.83 0.81 86 988.6
20200227162203 45 229 3.0 12.0 0.00 0.83 0.81 89 988.5
20200227161703 46 205 2.0 8.0 0.00 0.83 0.81 89 988.3
20200227161203 48 230 7.0 16.0 0.00 0.83 0.81 89 987.9
20200227160703 48 203 5.0 10.0 0.00 0.83 0.81 95 986.8
20200227155703 48 191 5.0 7.0 0.00 0.83 0.81 97 986.6
20200227155203 48 222 3.0 5.0 0.00 0.83 0.81 97 986.6
20200227154703 48 174 1.0 3.0 0.00 0.83 0.81 98 986.4
20200227154203 47 186 2.0 3.0 0.00 0.83 0.81 98 986.5
20200227153703 47 165 1.0 5.0 0.00 0.83 0.81 97 986.5
20200227153203 47 146 0.0 2.0 0.00 0.83 0.81 97 986.6
20200227152703 47 146 1.0 3.0 0.01 0.83 0.81 97 986.8
20200227151703 47 157 1.0 3.0 0.01 0.83 0.81 97 987.1
20200227150703 47 199 1.0 3.0 0.01 0.83 0.81 97 987.3
20200227150204 47 174 1.0 3.0 0.02 0.83 0.81 97 987.5
20200227145203 46 161 2.0 3.0 0.02 0.83 0.81 97 987.1
20200227144703 46 146 2.0 5.0 0.02 0.83 0.81 97 986.7
20200227144203 46 159 4.0 10.0 0.02 0.83 0.81 97 986.7
20200227143703 46 99 4.0 12.0 0.03 0.83 0.81 97 986.6
20200227142703 46 179 2.0 7.0 0.03 0.82 0.80 97 987.9
20200227141703 46 184 1.0 5.0 0.05 0.82 0.80 97 988.9
20200227140703 45 121 3.0 8.0 0.06 0.82 0.80 97 989.2
20200227140203 45 110 3.0 10.0 0.06 0.81 0.79 97 989.4
20200227135704 45 176 1.0 2.0 0.08 0.81 0.79 97 989.7
20200227135203 45 139 1.0 12.0 0.08 0.81 0.79 97 989.9
20200227134704 44 134 2.0 6.0 0.08 0.81 0.79 97 990.1
20200227133703 44 112 1.0 3.0 0.07 0.80 0.78 97 990.7
20200227133203 44 196 1.0 3.0 0.07 0.79 0.77 97 990.9
20200227132703 44 123 1.0 3.0 0.07 0.79 0.77 97 991.0
20200227131703 44 132 3.0 7.0 0.08 0.77 0.75 97 990.8
20200227131203 44 143 2.0 9.0 0.09 0.77 0.75 97 990.7
20200227130703 43 98 3.0 9.0 0.10 0.76 0.74 97 990.6
20200227130203 43 101 4.0 10.0 0.11 0.75 0.73 96 990.9
20200227125703 43 85 3.0 9.0 0.11 0.73 0.71 96 990.9
20200227125203 43 106 4.0 7.0 0.12 0.73 0.71 96 990.8
20200227124704 43 150 2.0 13.0 0.14 0.73 0.71 96 990.9
20200227124204 43 79 4.0 9.0 0.16 0.73 0.71 96 991.1
20200227123703 43 108 5.0 12.0 0.18 0.73 0.71 96 991.5
20200227123203 43 57 5.0 12.0 0.18 0.72 0.70 96 991.7
20200227122704 43 90 3.0 8.0 0.19 0.72 0.70 96 992.1
20200227120203 42 84 3.0 6.0 0.23 0.64 0.62 96 993.5
20200227115703 42 46 3.0 12.0 0.23 0.62 0.60 96 993.1
20200227115203 42 99 4.0 8.0 0.23 0.61 0.59 96 993.3
20200227114703 42 52 6.0 14.0 0.23 0.59 0.57 96 993.8
20200227114203 42 91 6.0 16.0 0.22 0.57 0.55 96 993.9
20200227113203 42 100 2.0 7.0 0.21 0.54 0.52 96 994.4
20200227112703 42 137 5.0 12.0 0.20 0.53 0.51 96 994.8
20200227112204 42 84 2.0 7.0 0.19 0.51 0.49 96 995.1
20200227111203 42 92 6.0 13.0 0.15 0.46 0.44 96 995.4
20200227110703 42 77 3.0 9.0 0.14 0.44 0.42 96 995.7
20200227110204 42 47 5.0 10.0 0.13 0.41 0.39 96 996.1
20200227105704 41 148 3.0 5.0 0.12 0.39 0.37 96 996.2
20200227104703 41 48 6.0 14.0 0.12 0.36 0.34 96 996.7
20200227104204 41 93 5.0 12.0 0.12 0.35 0.33 96 997.1
20200227103703 41 132 1.0 8.0 0.11 0.34 0.32 96 997.5
20200227103204 41 53 1.0 7.0 0.11 0.33 0.31 96 997.4
20200227102704 41 38 4.0 8.0 0.13 0.33 0.31 96 997.6
20200227102203 41 49 5.0 9.0 0.13 0.32 0.30 96 997.7
20200227101703 41 46 2.0 15.0 0.15 0.32 0.30 96 997.9
20200227101204 41 74 5.0 14.0 0.16 0.31 0.29 95 998.5
20200227100704 41 36 3.0 10.0 0.16 0.30 0.28 96 999.0
20200227095204 41 87 3.0 10.0 0.16 0.25 0.23 96 999.7
20200227094704 41 83 5.0 8.0 0.16 0.24 0.22 96 999.5
20200227094205 41 18 3.0 10.0 0.16 0.23 0.21 96 999.6
20200227093703 41 54 3.0 8.0 0.18 0.23 0.21 96 999.8
20200227093204 41 41 5.0 8.0 0.17 0.22 0.20 96 1000.2
20200227092204 41 50 4.0 8.0 0.15 0.19 0.17 96 1000.7
20200227091704 41 73 5.0 9.0 0.14 0.17 0.15 96 1001.0
20200227090704 41 131 0.0 5.0 0.11 0.14 0.12 96 1001.6
20200227090203 41 69 3.0 8.0 0.09 0.12 0.10 96 1001.8
20200227085704 41 62 2.0 8.0 0.07 0.10 0.08 96 1002.1
20200227085204 41 150 2.0 10.0 0.06 0.09 0.07 96 1002.0
20200227084704 41 87 4.0 13.0 0.05 0.08 0.06 96 1001.9
20200227083703 41 79 4.0 12.0 0.02 0.05 0.03 96 1002.4
20200227082704 41 47 6.0 12.0 0.02 0.04 0.02 96 1002.8
20200227082203 41 72 5.0 12.0 0.02 0.04 0.02 96 1002.9
20200227081204 41 70 5.0 12.0 0.01 0.03 0.01 96 1002.9
20200227080704 41 99 3.0 9.0 0.01 0.03 0.01 96 1003.1
20200227080204 41 46 3.0 7.0 0.01 0.03 0.01 96 1003.3
20200227075703 41 54 2.0 6.0 0.01 0.04 0.01 96 1003.4
20200227075204 41 67 3.0 10.0 0.01 0.04 0.01 96 1003.7
20200227074203 41 49 3.0 7.0 0.01 0.04 0.01 96 1004.2
20200227073703 41 63 3.0 6.0 0.01 0.04 0.01 96 1004.8
20200227073204 41 42 2.0 3.0 0.01 0.04 0.01 96 1005.3
20200227071704 41 49 1.0 7.0 0.00 0.03 0.00 96 1006.4
20200227071203 41 64 1.0 5.0 0.00 0.03 0.00 96 1006.5
20200227070704 41 62 5.0 9.0 0.00 0.03 0.00 96 1006.6
20200227070204 41 69 3.0 7.0 0.00 0.03 0.00 96 1006.7
20200227065203 41 112 3.0 8.0 0.00 0.03 0.00 97 1006.5
20200227064703 41 53 3.0 7.0 0.00 0.03 0.00 96 1006.3
20200227064204 41 28 1.0 3.0 0.00 0.03 0.00 96 1006.3
20200227063204 41 62 3.0 9.0 0.00 0.03 0.00 96 1006.8
20200227062703 41 71 4.0 9.0 0.00 0.03 0.00 96 1007.2
20200227062204 41 59 5.0 8.0 0.00 0.03 0.00 97 1007.5
20200227061703 41 62 3.0 9.0 0.00 0.03 0.00 97 1007.9
20200227061202 41 96 3.0 13.0 0.00 0.03 0.00 96 1008.4
20200227060702 41 68 3.0 6.0 0.00 0.03 0.00 97 1008.7